This demonstration page uses our WeatherBlox Daily Observations layout. Learn more.

Left ArrowRight Arrow

39.08367, -84.50855

Hourly Observations for March 25, 2019

Temp ( °F °C ) Dew Point ( °F °C ) Humidity (%) Winds ( mph kmh ) Pressure ( in mb ) Visibility ( mi km ) Precip ( " mm )
12:02 am 00:02 Mostly Cloudy with Mist and Fog 48 8.9 48 8.9 100 100 N N/A 30.05 1018 2 3 N/A
12:17 am 00:17 Partly Cloudy with Fog 47 8.3 46 7.8 97 97 N N/A 30.05 1018 0 0 N/A
12:38 am 00:38 Mostly Cloudy with Fog 48 8.9 47 8.3 96 96 VRB 3 6 30.04 1017 1 1 N/A
12:53 am 00:53 Cloudy with Mist and Fog 48 8.9 47 8.3 96 96 VRB 5 7 30.04 1017 1 2 N/A
12:59 am 00:59 Cloudy with Mist and Fog 48 8.9 47 8.3 96 96 ESE 3 6 30.04 1017 3 5 N/A
1:53 am 01:53 Cloudy with Light Rain 48 8.9 47 8.3 96 96 W 3 6 30.04 1017 9 14 N/A
2:09 am 02:09 Cloudy with Light Rain 49 9.4 47 8.3 93 93 N N/A 30.07 1018 3 4 0.04 1.02
2:16 am 02:16 Cloudy with Light Rain 48 8.9 47 8.3 96 96 VRB 3 6 30.07 1018 5 8 0.05 1.27
2:42 am 02:42 Cloudy with Heavy Rain 48 8.9 47 8.3 96 96 N 5 7 30.06 1018 3 4 0.15 3.81
2:53 am 02:53 Cloudy with Rain 49 9.4 47 8.3 93 93 VRB 6 9 30.04 1017 3 5 0.18 4.57
3:20 am 03:20 Cloudy with Rain 49 9.4 47 8.3 93 93 VRB 7 11 30.05 1018 3 4 0.06 1.52
3:29 am 03:29 Cloudy with Light Rain 49 9.4 47 8.3 93 93 ESE 7 11 30.05 1018 3 5 0.07 1.78
3:53 am 03:53 Cloudy with Rain 49 9.4 47 8.3 93 93 VRB 6 9 30.02 1017 3 5 0.10 2.54
4:07 am 04:07 Cloudy with Rain 48 8.9 47 8.3 96 96 NE 8 13 30.02 1017 3 4 0.04 1.02
4:18 am 04:18 Cloudy with Light Rain 48 8.9 47 8.3 96 96 NE 9 15 30.01 1016 4 6 0.05 1.27
4:53 am 04:53 Cloudy with Light Rain 49 9.4 47 8.3 93 93 VRB 5 7 29.98 1015 5 8 0.09 2.29
5:02 am 05:02 Cloudy with Rain 49 9.4 47 8.3 93 93 VRB 3 6 29.99 1016 3 5 0.02 0.51
5:53 am 05:53 Cloudy with Light Rain 49 9.4 47 8.3 93 93 SE 7 11 29.97 1015 5 8 0.07 1.78
6:53 am 06:53 Cloudy with Rain 48 8.9 47 8.3 96 96 NE 7 11 29.96 1015 4 6 0.08 2.03
7:16 am 07:16 Cloudy with Rain 48 8.9 47 8.3 96 96 NNE 7 11 29.97 1015 3 4 0.05 1.27
7:53 am 07:53 Cloudy with Rain 48 8.9 46 7.8 93 93 NNE 9 15 29.96 1015 3 5 0.13 3.30
8:53 am 08:53 Cloudy with Rain 48 8.9 45 7.2 89 89 NNE 9 15 29.99 1016 3 5 0.06 1.52
9:53 am 09:53 Cloudy with Light Rain 47 8.3 45 7.2 93 93 NE 9 15 30.00 1016 3 5 0.07 1.78
10:00 am 10:00 Cloudy with Light Rain 47 8.3 45 7.2 93 93 NE 9 15 30.01 1016 3 5 0.01 0.25
10:24 am 10:24 Cloudy with Light Rain 47 8.3 45 7.2 93 93 NE 10 17 30.02 1017 3 5 0.01 0.25
10:53 am 10:53 Cloudy with Light Rain 47 8.3 44 6.7 90 90 NE 12 19 30.02 1017 3 5 0.02 0.51
11:53 am 11:53 Cloudy with Mist and Fog 47 8.3 44 6.7 90 90 NE 12 19 30.04 1017 4 6 0.01 0.25
12:53 pm 12:53 Cloudy with Light Rain 44 6.7 41 5 89 89 NNE 14 22 30.05 1018 4 6 N/A
1:53 pm 13:53 Cloudy with Light Rain 43 6.1 40 4.4 89 89 NNE 12 19 30.07 1018 3 5 N/A
2:53 pm 14:53 Cloudy with Light Rain 42 5.6 39 3.9 89 89 NNE 12 19 30.08 1019 3 5 0.02 0.51
3:53 pm 15:53 Cloudy with Light Rain 43 6.1 39 3.9 86 86 N 16 26 30.08 1019 5 8 0.04 1.02
4:53 pm 16:53 Cloudy 44 6.7 39 3.9 83 83 NNE 13 20 30.09 1019 10 16 N/A
5:53 pm 17:53 Cloudy 44 6.7 37 2.8 76 76 NNE 13 20 30.10 1019 10 16 N/A
6:53 pm 18:53 Mostly Cloudy 45 7.2 38 3.3 77 77 NE 6 9 30.12 1020 10 16 N/A
7:53 pm 19:53 Sunny 44 6.7 35 1.7 71 71 NNE 8 13 30.15 1021 10 16 N/A
8:53 pm 20:53 Clear 42 5.6 29 -1.7 60 60 NNE 8 13 30.18 1022 10 16 N/A
9:53 pm 21:53 Clear 40 4.4 19 -7.2 43 43 NNE 12 19 30.22 1024 10 16 N/A
10:53 pm 22:53 Clear 37 2.8 20 -6.7 50 50 NE 8 13 30.24 1024 10 16 N/A
11:53 pm 23:53 Clear 35 1.7 19 -7.2 52 52 NE 6 9 30.26 1025 10 16 N/A

Powered by AerisWeather